Torna al catalogo

BREEZE-M DEB

AttivoHEO
NORAD 32496·DEBRIS·🇷🇺 Russia

Lanciato Feb 28, 2006 da Baikonur Cosmodrome

Loading…

Prossimi Passaggi (prossime 24 ore)

TLE

AggiornatoSource: Space-Track

Epoca: Sep 14, 2026, 04:31 UTC

1 32496U 06006AK  26257.18826873  .00003352  00000-0  29036-2 0  9996
2 32496  51.6928 293.7520 4893977 186.0023 164.8909  5.62781433 47975

Traccia BREEZE-M DEB in tempo reale con AllMySat

Download on the App Store